Theta_e
323 322 322 316 303 302 296 301 304 303 304 312 315 314 311 315 312 307 327 332 338 340 343 344 345 346 344 342 345 344 344 344 342 340 340 340 340 339 338 338 338 337 337 338 338 338 338 337 336
319 322 318 309 298 292 295 303 303 306 308 315 316 314 312 312 321 321 323 338 340 341 342 342 343 345 345 345 344 344 343 343 342 340 339 338 338 338 338 337 337 337 337 338 338 338 338 337 337
312 321 309 302 297 295 295 303 305 307 310 315 313 316 315 315 321 323 327 339 340 340 341 341 342 345 345 344 343 343 342 342 342 339 338 337 338 337 337 337 336 336 337 338 338 338 338 338 337
307 311 311 298 296 300 302 305 308 308 311 315 314 311 320 324 323 327 333 339 339 339 340 340 343 344 344 343 343 342 342 339 337 340 338 338 338 336 337 335 336 337 337 337 338 338 338 338 337
306 307 299 296 298 302 304 307 309 307 308 313 313 311 316 325 329 329 335 339 336 338 339 339 341 343 343 343 342 342 340 337 338 336 338 337 337 336 335 334 336 336 337 337 338 339 338 338 337
298 303 293 293 296 301 305 308 307 306 309 312 311 313 316 327 327 326 334 337 338 338 338 339 336 339 340 341 341 340 339 337 338 339 336 337 336 334 334 335 336 336 336 338 338 338 338 337 335
291 293 292 293 293 296 302 308 304 304 305 309 318 312 316 322 328 327 330 336 338 338 338 338 338 336 334 336 337 338 338 334 334 337 335 335 334 337 336 336 336 336 337 338 338 339 337 336 334
291 291 289 292 293 294 301 302 304 304 304 315 320 312 312 321 327 328 330 334 336 338 338 336 336 336 335 334 331 332 334 333 333 331 331 329 332 333 333 332 335 337 337 337 337 336 335 334 333
293 284 284 288 292 295 302 300 304 307 305 308 316 319 322 327 326 325 328 330 332 336 336 336 335 334 334 333 329 328 330 330 328 328 327 326 330 329 328 328 333 336 337 336 337 334 333 331 329
288 284 286 293 293 292 294 295 298 300 300 304 312 322 325 325 323 321 325 325 327 331 334 335 335 334 334 334 329 329 329 328 326 327 327 326 328 326 327 324 328 331 331 335 336 333 329 324 322
289 285 289 291 293 293 291 291 296 298 297 304 299 304 322 322 322 321 323 326 327 329 332 335 334 334 333 332 330 329 328 326 327 326 326 327 325 322 321 322 324 323 325 328 329 327 323 322 320
286 290 291 292 293 292 290 291 290 293 297 305 303 305 312 320 321 321 320 324 326 327 329 334 334 334 333 332 330 329 327 325 323 326 326 322 320 321 321 321 322 322 326 323 323 318 317 318 319
286 289 292 293 293 292 292 290 290 291 294 299 303 307 308 320 321 322 322 324 327 326 327 330 334 333 333 331 331 328 325 324 323 325 326 322 322 322 324 323 324 325 328 327 317 315 316 317 316
290 289 289 291 291 291 290 290 290 293 294 295 298 301 305 319 320 322 322 322 325 327 327 326 330 333 333 331 330 329 325 323 322 325 324 322 324 322 323 326 327 328 329 321 316 314 315 313 313
290 284 287 287 290 289 291 287 287 292 294 293 295 298 302 317 320 321 323 322 325 326 327 326 328 333 332 331 330 329 325 323 321 324 322 324 325 324 325 327 325 323 319 316 312 313 311 309 309
285 284 277 284 287 289 288 280 289 292 292 292 294 296 302 304 321 323 322 324 326 326 327 327 329 330 330 330 330 328 326 324 322 324 324 324 325 325 324 324 321 318 315 313 311 310 307 305 304
282 276 278 281 288 287 286 282 289 292 291 290 292 294 301 304 316 323 324 323 326 327 327 327 327 328 329 329 329 327 324 322 320 324 324 324 325 324 320 321 319 316 313 311 311 307 306 303 301
275 276 279 279 284 285 283 283 287 291 290 289 288 291 295 304 310 319 323 324 324 327 327 327 328 329 329 328 327 325 321 321 320 323 325 325 323 322 319 318 318 316 311 311 309 307 303 301 299
283 280 279 282 286 283 282 282 285 286 287 286 288 288 292 297 306 317 322 324 324 325 326 327 326 328 328 326 323 321 318 318 319 322 324 323 322 319 318 316 315 312 310 310 309 306 301 296 296
282 279 279 282 285 283 282 281 284 286 286 287 287 289 291 295 301 313 316 318 323 323 325 326 326 327 328 325 325 322 319 319 320 322 323 322 318 316 315 314 310 309 306 306 307 303 298 295 296
281 279 279 279 284 285 282 279 281 285 287 289 290 290 292 292 299 306 315 318 320 322 323 326 326 327 326 323 322 320 320 320 319 320 318 318 316 313 314 312 309 306 306 305 306 301 300 294 295
276 283 283 281 278 274 283 272 279 282 284 286 288 290 290 292 297 305 309 317 321 322 323 324 326 326 326 324 321 318 318 316 318 317 313 314 312 310 309 308 307 305 304 304 305 302 301 297 293
278 284 282 281 278 278 278 274 276 282 281 284 287 288 290 292 294 304 308 315 321 322 322 324 326 326 325 324 323 321 319 319 316 313 309 306 305 306 305 305 304 303 304 303 303 301 301 298 295
285 283 282 282 280 271 276 276 275 277 281 283 287 289 291 292 293 299 307 313 320 321 322 323 324 325 325 324 323 321 320 318 313 313 309 304 301 301 301 301 302 302 301 302 303 303 302 300 298
282 278 272 269 270 265 278 275 277 282 284 285 286 288 291 292 293 296 300 308 317 319 321 322 322 323 325 324 323 321 320 317 315 313 310 305 299 297 298 298 298 299 299 300 301 301 299 297 293
280 277 269 262 263 266 277 269 277 285 287 288 289 289 290 291 293 296 300 309 316 318 319 320 320 321 322 324 323 321 319 317 316 314 311 307 305 303 300 297 295 295 295 296 295 295 294 293 292
281 276 283 274 271 272 275 280 285 288 287 287 287 288 288 291 293 295 300 312 316 317 318 320 319 320 320 322 323 322 318 317 316 312 311 308 305 301 297 294 293 292 292 292 292 291 290 290 290
283 285 277 276 267 267 274 275 278 282 288 286 286 287 289 291 294 296 301 309 316 317 318 319 319 319 320 322 323 322 318 317 315 311 307 305 300 296 293 291 291 290 290 290 290 289 290 289 289
279 277 279 279 278 270 269 274 284 284 289 292 294 291 292 292 294 300 303 308 314 315 313 313 314 315 317 320 322 319 317 316 311 309 306 301 295 293 291 290 289 289 289 289 289 289 289 289 289
282 277 277 271 274 276 275 275 284 285 290 294 294 296 298 299 299 301 303 304 302 302 302 299 299 299 303 310 308 303 301 302 302 300 296 294 291 290 290 290 289 289 289 290 290 290 290 289 288
Wind_Speed
13 11 6 3 2 2 5 8 6 13 6 3 3 7 5 4 3 4 7 9 21 18 17 17 20 19 20 21 19 18 18 19 20 17 17 17 16 16 16 15 15 15 16 16 16 15 14 13 12
6 8 1 2 4 6 7 8 14 15 11 2 4 4 4 2 0 8 10 19 21 19 16 15 19 19 18 19 19 18 18 17 19 17 16 16 15 15 15 15 15 14 15 15 15 14 14 13 12
11 6 1 4 5 17 7 9 13 11 9 5 3 2 4 6 1 14 11 20 21 19 16 14 17 19 18 18 19 19 17 17 18 17 18 16 16 16 15 14 14 14 14 14 14 14 13 12 9
4 4 3 5 18 8 15 9 19 10 9 3 6 5 5 2 9 6 17 21 19 19 16 16 19 19 19 19 18 19 17 18 18 19 17 17 16 15 13 14 13 13 13 13 14 13 12 10 8
2 3 5 9 22 9 9 14 21 16 12 6 3 5 7 2 8 13 20 19 20 18 16 16 19 19 19 19 18 17 17 18 18 19 17 17 16 15 14 14 13 12 12 13 13 12 11 9 7
3 2 6 20 17 11 15 21 18 14 16 13 3 7 6 7 12 9 16 20 19 18 18 16 17 18 18 19 17 16 16 19 17 16 17 17 16 15 14 13 12 12 11 12 12 11 11 9 6
4 2 11 17 12 9 13 16 15 9 9 10 6 4 1 2 7 8 13 17 17 18 18 15 15 15 14 14 14 14 15 18 18 15 16 15 15 13 13 12 12 11 11 11 10 11 11 9 5
0 3 6 8 12 13 8 7 9 7 14 9 9 3 4 6 11 10 11 14 17 17 17 15 14 13 12 11 13 12 12 14 15 18 14 14 11 12 11 10 10 12 11 10 11 11 9 8 6
1 3 12 12 5 11 14 15 3 9 5 12 2 8 6 9 10 7 17 13 14 14 17 16 14 12 11 10 10 11 12 13 17 14 12 12 5 6 7 7 10 10 9 9 10 10 8 6 6
4 5 6 5 8 8 12 11 9 9 14 12 5 8 11 14 6 8 17 17 16 17 17 16 15 13 12 10 9 7 7 5 8 10 8 5 6 5 6 7 9 10 8 8 10 10 7 5 3
5 12 10 13 12 11 9 14 7 4 7 3 7 14 7 13 11 7 10 17 17 18 14 16 15 14 13 10 7 5 4 4 5 8 6 6 5 4 4 3 3 4 6 3 5 5 2 3 1
8 11 12 8 7 10 12 9 9 10 10 12 15 14 13 10 17 17 9 12 16 17 17 17 17 14 13 9 8 7 6 5 4 6 9 4 4 5 5 4 5 4 3 5 5 3 5 4 4
8 8 12 12 12 13 13 13 12 19 9 11 15 11 14 15 11 9 7 7 12 15 16 17 17 16 13 13 9 8 7 7 7 7 8 5 6 7 7 6 5 5 5 5 4 5 4 5 6
6 15 16 16 16 13 14 14 6 23 9 16 17 13 15 11 16 14 11 9 12 13 12 13 15 15 15 13 14 10 8 7 8 8 8 7 7 6 6 5 5 6 6 5 5 5 4 4 5
9 9 14 15 8 10 11 17 25 16 15 18 17 15 14 8 10 14 16 16 15 13 12 11 9 15 16 15 13 10 10 8 6 8 9 8 7 6 6 7 5 4 5 7 5 5 5 5 4
13 7 7 13 10 11 13 23 17 12 19 21 19 12 11 10 11 13 10 13 14 12 14 13 10 12 14 14 11 10 10 9 7 7 8 8 7 7 5 6 5 6 6 6 6 5 4 5 5
5 9 9 14 11 15 12 21 17 18 19 21 18 15 9 9 6 12 10 13 15 15 15 13 12 14 14 13 10 10 10 9 7 7 7 8 7 9 7 7 6 6 6 5 6 3 6 4 4
5 7 11 14 15 12 15 13 7 11 15 14 11 14 11 9 7 13 14 16 14 15 16 15 13 13 13 11 10 8 7 7 6 8 8 10 6 9 8 6 8 6 6 6 4 6 3 4 5
16 19 21 20 20 15 17 16 12 8 11 10 11 8 14 15 7 9 11 7 13 13 15 18 16 12 12 10 10 10 10 8 7 7 10 9 9 9 9 6 8 6 7 9 9 5 8 3 4
20 21 21 22 15 11 17 19 15 13 16 14 15 12 10 14 15 10 13 12 11 16 16 16 17 13 11 10 8 8 9 8 8 7 7 8 10 10 9 9 8 8 5 8 9 8 5 3 5
17 17 18 21 15 18 16 18 16 12 12 15 17 17 12 11 14 12 14 16 18 18 19 17 18 17 14 12 9 7 5 4 3 5 3 6 9 8 10 9 8 7 6 8 10 9 9 5 6
23 21 20 19 15 17 11 12 16 14 16 18 18 16 15 12 11 14 9 18 19 17 15 17 15 16 15 14 11 12 11 10 5 5 4 6 7 7 6 8 7 8 5 7 9 8 6 5 7
12 11 16 18 17 12 14 6 7 13 17 17 16 18 17 12 11 10 15 10 19 18 16 15 15 15 14 15 14 12 11 8 4 4 7 4 4 5 6 7 7 7 6 6 9 9 9 5 5
15 12 18 13 9 12 12 11 13 14 23 21 21 20 18 14 12 8 11 9 14 15 16 15 16 15 15 15 15 15 16 12 8 8 8 6 4 4 5 6 7 7 7 9 9 9 10 8 4
7 6 3 2 5 7 5 10 20 12 21 23 22 19 19 16 13 11 10 8 13 15 16 15 15 15 16 17 15 16 16 14 14 12 9 9 5 4 8 7 7 6 6 6 7 8 7 7 5
11 4 2 5 2 6 5 8 9 17 21 21 24 19 15 15 15 15 11 9 13 15 14 15 15 15 16 16 15 13 14 10 10 12 10 9 9 9 8 8 6 6 6 6 5 4 4 5 5
3 4 5 3 4 3 4 5 11 9 9 21 18 12 11 16 16 15 11 8 12 15 17 18 16 14 13 14 13 12 13 14 13 13 11 9 9 6 10 9 8 6 6 6 5 4 5 5 4
4 8 3 0 3 4 3 9 3 18 14 14 16 15 12 9 15 13 13 10 12 13 12 10 11 13 12 12 11 11 12 13 10 11 12 10 8 9 10 9 8 8 7 6 6 4 4 5 3
10 10 6 7 3 2 4 3 10 17 17 10 5 3 5 9 14 9 8 8 10 10 8 6 6 7 7 8 9 8 9 9 9 11 9 9 8 9 9 9 9 9 8 7 6 6 5 5 5
8 12 8 5 2 1 2 3 17 22 13 10 15 13 14 17 13 13 15 15 14 13 12 12 12 12 11 7 8 9 11 10 6 5 6 8 9 8 7 6 6 8 8 7 6 5 3 5 4
Wind_Direction
323 316 312 12 48 222 228 241 243 274 297 246 106 98 126 123 206 178 167 156 131 146 149 149 152 156 156 153 141 142 144 142 139 142 137 136 131 128 125 122 118 116 113 110 107 103 100 101 100
302 310 347 259 182 230 241 241 245 244 238 235 80 97 100 135 234 121 125 145 140 144 148 150 151 156 154 146 144 147 148 151 143 142 144 142 137 134 128 126 120 119 115 111 107 103 101 100 102
301 196 21 182 215 227 218 238 255 250 255 205 117 76 97 158 113 152 126 147 139 143 148 148 151 153 151 148 147 147 149 157 146 145 145 139 141 136 133 127 123 120 118 112 107 102 101 100 98
317 334 252 231 236 239 224 245 263 283 311 206 157 134 64 333 148 158 135 144 138 144 146 147 150 153 153 152 153 156 164 152 153 142 149 142 141 140 137 130 124 121 118 114 110 106 105 105 102
320 279 235 234 241 243 259 244 253 266 270 193 221 177 138 83 124 139 139 144 143 146 144 148 151 154 155 154 157 159 155 156 153 152 151 150 144 145 141 135 129 125 121 118 115 114 113 111 101
309 175 240 236 237 227 231 257 259 265 277 245 272 148 179 157 136 154 135 149 147 142 147 150 150 153 158 155 156 158 156 159 153 154 153 152 150 151 146 139 132 130 128 124 120 123 122 115 108
172 273 246 258 258 257 239 255 261 264 274 251 192 186 242 210 153 155 135 148 140 145 145 151 153 153 156 153 154 156 159 162 162 153 157 156 157 147 137 142 138 136 134 126 125 130 119 118 119
272 235 244 242 247 265 281 297 306 310 284 255 132 231 220 211 157 163 124 132 140 146 147 151 152 155 156 157 150 154 159 159 163 164 158 157 143 128 138 142 143 139 137 127 113 114 122 128 138
319 271 251 260 267 276 300 300 356 316 331 318 232 147 172 128 154 140 135 140 145 150 150 153 155 157 153 151 154 154 157 159 167 164 148 156 136 137 146 150 141 138 143 142 139 132 133 146 133
179 228 260 289 310 305 313 311 325 355 343 318 12 59 133 131 183 162 155 156 162 157 154 157 158 158 155 156 152 149 151 159 159 168 157 148 146 152 160 156 148 147 148 138 138 139 148 141 138
255 257 282 289 297 302 308 305 319 334 294 239 2 334 198 162 159 201 179 167 167 159 154 159 160 160 160 156 155 154 146 145 140 145 154 158 159 154 142 142 146 148 149 148 129 124 154 264 167
289 289 281 291 297 303 295 293 286 266 262 280 304 298 269 242 166 198 184 173 165 168 155 162 164 163 162 153 158 157 160 153 149 162 171 162 155 155 158 165 174 168 165 151 136 143 148 117 133
296 295 300 317 310 294 290 282 273 276 287 270 287 307 322 210 206 200 187 161 175 174 160 164 167 167 160 156 152 159 166 168 169 170 183 159 172 167 167 180 170 171 177 151 133 135 123 106 95
301 307 298 295 286 288 294 297 288 276 296 285 285 288 291 217 191 184 172 204 169 175 173 153 171 162 159 161 163 166 166 177 170 175 185 171 177 172 179 176 177 170 158 144 138 141 127 112 106
271 302 303 284 282 283 294 270 262 291 294 279 270 269 272 241 208 196 183 194 185 172 168 160 144 157 159 162 163 168 172 175 177 176 179 176 171 180 161 164 146 132 129 131 119 111 114 106 99
287 281 263 264 257 257 229 258 263 268 275 276 281 256 248 265 220 204 192 195 201 177 178 174 150 154 158 160 165 164 173 171 185 180 175 177 176 161 160 140 142 151 138 131 132 136 115 117 116
228 263 250 284 254 261 244 263 252 246 253 265 268 262 244 248 202 197 193 201 195 185 183 184 165 161 162 158 160 162 168 171 179 175 184 185 174 156 152 151 158 157 138 140 146 135 138 136 124
226 227 263 264 276 285 292 286 284 243 242 253 256 247 240 242 222 213 186 212 196 181 182 188 190 165 168 164 159 157 167 180 173 177 177 184 159 160 150 158 158 153 147 148 145 146 126 138 138
260 265 268 269 270 273 273 277 280 287 291 291 281 270 250 240 230 205 166 203 194 182 179 182 185 168 172 172 166 163 175 173 185 185 179 179 160 157 151 159 157 160 167 163 160 135 138 96 129
269 277 271 276 272 254 269 271 267 262 268 263 275 278 275 256 224 199 184 173 216 185 188 186 184 170 177 169 174 174 174 177 182 187 184 160 158 159 153 165 172 172 159 146 158 149 137 121 188
277 272 273 273 303 278 260 273 261 249 251 271 264 264 248 262 237 207 196 182 196 192 186 185 185 181 176 168 158 158 136 119 133 181 149 161 160 168 158 168 177 176 167 169 171 162 165 152 208
271 268 265 271 275 270 200 259 248 241 249 253 258 258 263 249 256 219 211 187 182 199 188 191 182 182 182 170 174 175 178 182 186 166 152 162 157 160 161 163 176 177 171 167 177 171 172 132 175
275 280 261 262 259 265 243 255 260 235 244 241 241 250 246 240 239 243 219 203 185 180 183 184 182 179 181 177 181 186 188 186 154 141 147 135 134 163 167 170 173 178 180 173 174 169 177 168 156
262 277 255 243 243 244 240 208 243 219 224 236 241 237 250 227 225 228 227 164 183 189 183 185 175 181 181 181 184 184 186 178 163 168 167 172 165 172 186 184 184 189 181 176 186 184 183 181 166
233 304 305 218 205 232 170 203 242 235 227 228 231 235 237 224 211 212 233 186 178 183 182 173 172 177 182 191 186 186 184 180 178 179 181 177 165 183 195 180 188 191 182 177 173 175 177 171 165
290 223 261 244 234 268 260 244 248 230 228 224 233 229 235 224 211 213 221 200 165 174 177 177 180 181 182 186 193 185 185 189 188 186 184 198 194 195 183 181 170 169 162 164 161 147 146 156 154
11 173 273 281 218 250 235 299 325 342 283 227 235 219 220 222 212 207 204 177 173 177 178 176 177 183 182 183 195 202 187 190 196 191 188 189 190 182 175 168 158 150 138 138 136 138 143 132 132
276 324 315 319 288 281 304 303 283 328 311 211 224 230 242 232 208 192 195 165 171 170 166 171 171 176 181 184 193 208 194 199 192 183 187 182 172 157 158 150 150 148 138 131 124 113 99 112 91
4 2 337 289 221 248 308 267 340 333 343 355 57 219 257 208 178 162 153 145 141 141 150 137 153 159 170 185 203 196 200 200 179 183 182 173 146 149 150 155 149 145 135 118 105 115 99 89 90
356 342 336 271 237 174 252 303 346 341 326 41 50 39 36 57 69 71 75 76 63 62 58 57 48 46 18 31 54 42 44 32 31 70 86 92 87 73 78 82 90 107 101 94 104 110 118 126 116